User: anonymous   Login
Location: Stuttgart
(48.7758°N, 9.1829°E)
Time: 11:23:42
(UTC+02:00)
Language:

Iridium 51 - Orbit

View from above orbital plane
View from above orbital plane
View from above satellite
View from above satellite

Ground track
Ground track

The orbit data is extracted from the following two-line orbital elements,

1 25262U 98018A   24107.88889956  .00032129  00000-0  15470-2 0  9994
2 25262  86.3956 260.9773 0151291  49.2002 312.2244 15.08981060382162
Epoch (UTC): 16 April 2024 21:20:00
Eccentricity: 0.0151291
inclination: 86.3956°
perigee height: 434 km
apogee height: 644 km
right ascension of ascending node: 260.9773°
argument of perigee: 49.2002°
revolutions per day: 15.08981060
mean anomaly at epoch: 312.2244°
orbit number at epoch: 38216

The dashed part of the orbit path shows where the satellite is in the earth's shadow,  

DLR